DW8343 Weather Reports


time (UTC)temp
C
wind
direction
speed
KPH
gust
KPH
rain 1hr
cm
rain 24hr
cm
rain mn
cm
humidity
%
barometer
mb
20221207230017 8 90 0.0 3.2 0.05 0.10 0.10 94 1022.8
20221207225235 8 90 0.0 3.2 0.05 0.10 0.10 94 1022.6
20221207224725 8 45 1.6 3.2 0.05 0.10 0.10 94 1022.4
20221207224215 8 90 0.0 3.2 0.05 0.10 0.10 94 1022.4
20221207223705 9 90 0.0 3.2 0.03 0.05 0.10 94 1022.8
20221207223155 9 90 0.0 3.2 0.03 0.05 0.05 94 1022.5
20221207222645 9 45 0.0 3.2 0.03 0.05 0.05 93 1022.8
20221207222136 9 68 0.0 1.6 0.03 0.05 0.05 93 1022.4
20221207221625 9 90 1.6 1.6 0.03 0.05 0.05 93 1022.3
20221207221114 9 90 0.0 1.6 0.03 0.05 0.05 93 1022.5
20221207220604 9 90 0.0 1.6 0.00 0.03 0.03 92 1022.6
20221207220054 9 90 0.0 1.6 0.00 0.03 0.03 92 1022.7
20221207215544 9 45 1.6 3.2 0.03 0.03 0.03 92 1022.7
20221207215034 9 90 1.6 4.8 0.03 0.03 0.03 92 1022.3
20221207214755 9 90 0.0 4.8 0.03 0.03 0.03 92 1022.2
20221207214014 9 68 1.6 3.2 0.03 0.03 0.03 92 1022.2
20221207213504 9 90 0.0 3.2 0.03 0.03 0.03 91 1022.5
20221207212955 9 90 0.0 3.2 0.03 0.03 0.03 91 1022.0
20221207212443 9 90 0.0 3.2 0.03 0.03 0.03 91 1022.0
20221207212204 9 45 1.6 3.2 0.03 0.03 0.03 91 1022.2
20221207211424 9 90 1.6 3.2 0.03 0.03 0.03 91 1021.9
20221207210912 9 90 0.0 4.8 0.03 0.03 0.03 90 1022.3
20221207210404 9 45 1.6 4.8 0.03 0.03 0.03 90 1022.1
20221207205853 9 45 1.6 4.8 0.00 0.00 0.00 90 1022.3
20221207205343 9 90 1.6 3.2 0.00 0.00 0.00 90 1022.4
20221207205103 9 90 0.0 3.2 0.00 0.00 0.00 89 1022.5
20221207204322 10 90 0.0 3.2 0.00 0.00 0.00 89 1022.3
20221207203812 10 45 1.6 3.2 0.00 0.00 0.00 89 1022.2
20221207203301 10 45 1.6 1.6 0.00 0.00 0.00 88 1022.1
20221207202751 10 90 0.0 4.8 0.00 0.00 0.00 88 1022.4
20221207202248 10 45 0.0 4.8 0.00 0.00 0.00 88 1022.3
20221207201731 10 90 1.6 4.8 0.00 0.00 0.00 87 1022.2
20221207201221 10 45 1.6 3.2 0.00 0.00 0.00 87 1022.1
20221207200712 10 135 0.0 4.8 0.00 0.00 0.00 87 1022.7
20221207200200 10 135 0.0 4.8 0.00 0.00 0.00 87 1022.9
20221207195650 10 90 1.6 3.2 0.00 0.00 0.00 87 1022.5
20221207195140 10 45 1.6 4.8 0.00 0.00 0.00 87 1022.1
20221207194630 10 45 1.6 4.8 0.00 0.00 0.00 87 1022.3
20221207194120 10 225 1.6 4.8 0.00 0.00 0.00 87 1022.1
20221207193610 10 90 1.6 4.8 0.00 0.00 0.00 86 1021.9
20221207193100 10 90 1.6 4.8 0.00 0.00 0.00 86 1022.1
20221207192550 10 45 1.6 4.8 0.00 0.00 0.00 86 1021.9
20221207192040 10 90 1.6 4.8 0.00 0.00 0.00 85 1022.2
20221207191530 10 90 1.6 4.8 0.00 0.00 0.00 85 1022.6
20221207191251 10 135 0.0 4.8 0.00 0.00 0.00 85 1023.1
20221207190509 10 135 1.6 4.8 0.00 0.00 0.00 86 1022.8
20221207185959 10 68 1.6 6.4 0.00 0.00 0.00 86 1022.9
20221207185449 10 90 1.6 8.0 0.00 0.00 0.00 86 1022.8
20221207184938 10 68 0.0 8.0 0.00 0.00 0.00 87 1023.0
20221207184428 10 0 1.6 4.8 0.00 0.00 0.00 87 1023.3
20221207184149 10 0 0.0 4.8 0.00 0.00 0.00 88 1007.7
20221207183408 10 315 1.6 4.8 0.00 0.00 0.00 88 1023.5
20221207182858 10 225 1.6 4.8 0.00 0.00 0.00 88 1023.5
20221207182348 10 45 1.6 8.0 0.00 0.00 0.00 88 1023.4
20221207181838 10 180 1.6 8.0 0.00 0.00 0.00 88 1023.6
20221207181328 10 180 1.6 4.8 0.00 0.00 0.00 88 1023.5
20221207181049 10 135 1.6 3.2 0.00 0.00 0.00 88 1023.8
20221207180308 10 90 0.0 3.2 0.00 0.00 0.00 88 1023.1
20221207175759 10 45 1.6 3.2 0.00 0.00 0.00 89 1022.6
20221207175248 10 90 0.0 3.2 0.00 0.00 0.00 89 1022.8
20221207175008 10 135 1.6 4.8 0.00 0.00 0.00 89 1022.9
20221207174227 10 90 0.0 4.8 0.00 0.00 0.00 90 1022.9
20221207173717 10 158 1.6 4.8 0.00 0.00 0.00 90 1023.0
20221207173206 10 90 1.6 4.8 0.00 0.00 0.00 90 1022.9
20221207172656 9 135 1.6 4.8 0.00 0.00 0.00 90 1023.2
20221207172146 9 90 1.6 3.2 0.00 0.00 0.00 91 1023.2
20221207171636 9 90 1.6 3.2 0.00 0.00 0.00 91 1023.1
20221207171127 9 90 1.6 3.2 0.00 0.00 0.00 91 1023.4
20221207170616 9 90 0.0 4.8 0.00 0.00 0.00 91 1023.4
20221207170106 9 90 0.0 4.8 0.00 0.00 0.00 91 1023.2
20221207165557 8 90 1.6 4.8 0.00 0.00 0.00 92 1023.3
20221207165045 8 90 3.2 4.8 0.00 0.00 0.00 92 1023.1
20221207164535 8 68 1.6 4.8 0.00 0.00 0.00 92 1023.1
20221207164025 8 90 1.6 4.8 0.00 0.00 0.00 93 1023.3
20221207163516 8 158 0.0 3.2 0.00 0.00 0.00 93 1023.4
20221207163005 8 90 1.6 3.2 0.00 0.00 0.00 94 1023.7
20221207161945 8 90 0.0 4.8 0.00 0.00 0.00 94 1023.3
20221207161434 8 135 1.6 3.2 0.00 0.00 0.00 94 1023.2
20221207160925 8 68 1.6 3.2 0.00 0.00 0.00 95 1023.2
20221207160415 8 90 1.6 3.2 0.00 0.00 0.00 95 1023.5
20221207155905 8 90 1.6 1.6 0.00 0.00 0.00 95 1023.6
20221207155354 8 270 0.0 3.2 0.00 0.00 0.00 95 1023.5
20221207154844 7 113 0.0 4.8 0.00 0.00 0.00 95 1023.1
20221207154334 7 90 0.0 4.8 0.00 0.00 0.00 96 1023.0
20221207153823 7 90 0.0 4.8 0.00 0.00 0.00 96 1022.8
20221207153313 7 45 0.0 3.2 0.00 0.00 0.00 96 1022.9
20221207152803 7 68 1.6 3.2 0.00 0.00 0.00 96 1022.7
20221207152253 7 135 0.0 3.2 0.00 0.00 0.00 97 1023.1
20221207151743 7 90 0.0 3.2 0.00 0.00 0.00 97 1023.1
20221207151233 7 135 0.0 3.2 0.00 0.00 0.00 97 1023.1
20221207150728 7 90 0.0 3.2 0.00 0.00 0.00 97 1023.0
20221207150443 7 90 0.0 1.6 0.00 0.00 0.00 97 1022.7
20221207145152 7 90 1.6 1.6 0.00 0.00 0.00 97 1022.7
20221207144642 7 90 0.0 1.6 0.00 0.00 0.00 97 1022.8
20221207144402 7 90 0.0 1.6 0.00 0.00 0.00 97 1022.7
20221207143853 7 0 0.0 1.6 0.00 0.00 0.00 97 1022.6
20221207143113 7 45 0.0 4.8 0.00 0.00 0.00 98 1022.8
20221207142602 6 90 0.0 4.8 0.00 0.00 0.00 99 1022.1
20221207142322 6 90 1.6 3.2 0.00 0.00 0.00 99 1022.1
20221207141543 6 90 1.6 3.2 0.00 0.00 0.00 99 1022.5
20221207141031 6 90 1.6 3.2 0.00 0.00 0.00 99 1022.2
20221207140521 6 180 1.6 4.8 0.00 0.00 0.00 99 1022.1
20221207140010 6 180 1.6 4.8 0.00 0.00 0.00 99 1021.6
20221207135501 6 90 1.6 3.2 0.00 0.00 0.00 99 1021.5
20221207135222 6 90 0.0 1.6 0.00 0.00 0.00 99 1022.0
20221207134441 6 90 0.0 1.6 0.00 0.00 0.00 99 1022.3
20221207133931 6 90 0.0 1.6 0.00 0.00 0.00 99 1022.1
20221207133420 6 135 1.6 3.2 0.00 0.00 0.00 99 1021.9
20221207132910 6 90 1.6 3.2 0.00 0.00 0.00 99 1021.4
20221207132400 6 90 1.6 3.2 0.00 0.00 0.00 99 1021.3
20221207131849 6 90 0.0 0.0 0.00 0.03 0.00 99 1021.7
20221207131611 6 90 0.0 1.6 0.00 0.03 0.00 99 1021.6
20221207130830 6 90 0.0 3.2 0.00 0.03 0.00 99 1022.1
20221207130319 6 90 0.0 3.2 0.00 0.03 0.00 99 1021.4
20221207125809 6 90 0.0 1.6 0.00 0.03 0.00 99 1021.0
20221207125530 6 113 0.0 1.6 0.00 0.03 0.00 99 1021.4
20221207124749 6 90 0.0 1.6 0.00 0.03 0.00 99 1021.2
20221207124509 6 135 0.0 1.6 0.00 0.03 0.00 99 1021.3
20221207123728 6 90 0.0 3.2 0.00 0.03 0.00 99 1021.0
20221207123218 6 90 1.6 4.8 0.00 0.03 0.00 99 1021.0
20221207122708 6 90 0.0 4.8 0.00 0.03 0.00 99 1020.8
20221207122158 6 90 0.0 3.2 0.00 0.03 0.00 99 1020.7
20221207121648 6 90 0.0 4.8 0.00 0.03 0.00 99 1020.6
20221207121138 6 90 1.6 4.8 0.00 0.03 0.00 99 1020.8
20221207120628 6 90 1.6 4.8 0.00 0.03 0.00 99 1020.7
20221207120118 6 90 1.6 4.8 0.00 0.03 0.00 99 1020.2
20221207115607 6 45 3.2 4.8 0.00 0.03 0.00 99 1020.2
20221207115328 6 68 0.0 3.2 0.00 0.03 0.00 100 1020.4
20221207114547 6 45 1.6 3.2 0.00 0.03 0.00 100 1020.5
20221207114037 6 90 1.6 3.2 0.00 0.03 0.00 100 1020.3
20221207113526 6 90 1.6 3.2 0.00 0.03 0.00 100 1020.3
20221207113018 6 135 0.0 4.8 0.00 0.03 0.00 100 1020.4
20221207112507 6 90 1.6 4.8 0.00 0.03 0.00 99 1020.3
20221207112228 6 90 0.0 3.2 0.00 0.03 0.00 99 1020.1
20221207111717 6 45 1.6 3.2 0.00 0.03 0.00 99 1020.0
20221207110938 6 90 0.0 3.2 0.00 0.03 0.00 99 1020.2
20221207110426 6 90 0.0 4.8 0.00 0.03 0.00 99 1020.3
20221207105916 6 90 1.6 4.8 0.00 0.03 0.00 100 1019.9
20221207104856 6 68 1.6 3.2 0.00 0.03 0.00 100 1020.3
20221207104346 6 45 1.6 4.8 0.00 0.03 0.00 100 1020.1
20221207103837 6 135 1.6 4.8 0.00 0.03 0.00 100 1020.1
20221207103326 6 45 1.6 4.8 0.00 0.03 0.00 100 1020.2
20221207102815 6 45 1.6 4.8 0.00 0.03 0.00 100 1020.1
20221207102536 6 90 1.6 4.8 0.00 0.03 0.00 100 1019.8
20221207101755 6 90 1.6 4.8 0.00 0.03 0.00 100 1020.2
20221207101245 6 90 1.6 4.8 0.00 0.03 0.00 100 1020.0
20221207100224 6 68 1.6 6.4 0.00 0.03 0.00 100 1020.1
20221207095714 6 90 1.6 6.4 0.00 0.03 0.00 100 1020.5
20221207095435 6 315 1.6 4.8 0.00 0.03 0.00 100 1020.6
20221207094939 5 45 1.6 4.8 0.00 0.03 0.00 100 1020.3
20221207094144 5 45 1.6 4.8 0.00 0.03 0.00 100 1020.1
20221207093634 5 90 1.6 6.4 0.00 0.03 0.00 100 1020.1
20221207093124 5 45 1.6 8.0 0.00 0.03 0.00 100 1020.0
20221207092614 5 180 3.2 8.0 0.00 0.03 0.00 100 1020.0
20221207092104 5 90 0.0 4.8 0.00 0.03 0.00 100 1020.1
20221207091555 5 68 1.6 4.8 0.00 0.03 0.00 100 1019.7
20221207091043 5 135 1.6 8.0 0.00 0.03 0.00 100 1020.0
20221207090533 5 158 1.6 8.0 0.00 0.03 0.00 100 1019.7
20221207090023 5 225 1.6 6.4 0.00 0.03 0.00 100 1019.8
20221207085513 5 90 4.8 6.4 0.00 0.03 0.00 100 1020.0
20221207085003 5 90 1.6 4.8 0.00 0.03 0.00 100 1019.7
20221207084452 5 45 1.6 6.4 0.00 0.03 0.00 100 1019.7
20221207083942 5 90 0.0 6.4 0.00 0.03 0.00 100 1019.7
20221207083703 5 113 1.6 4.8 0.00 0.03 0.00 100 1019.9
20221207083154 5 90 0.0 8.0 0.00 0.03 0.00 100 1019.6
20221207082412 5 90 4.8 8.0 0.00 0.03 0.00 100 1019.5
20221207081903 5 135 1.6 4.8 0.00 0.03 0.00 100 1019.6
20221207081351 5 45 0.0 4.8 0.00 0.03 0.00 100 1019.7
20221207081113 5 45 0.0 3.2 0.00 0.03 0.00 100 1019.5
20221207075822 5 90 0.0 6.4 0.00 0.03 0.00 100 1019.3
20221207075311 5 90 1.6 4.8 0.00 0.03 0.00 100 1019.4
20221207074802 5 68 1.6 4.8 0.00 0.03 0.00 100 1019.2
20221207074251 5 90 1.6 4.8 0.00 0.03 0.00 100 1019.5
20221207073502 5 90 0.0 1.6 0.00 0.03 0.00 99 1019.7
20221207072720 5 90 0.0 1.6 0.00 0.03 0.00 99 1019.7
20221207072211 5 90 0.0 1.6 0.00 0.03 0.00 99 1019.4
20221207071701 5 90 0.0 1.6 0.00 0.03 0.00 99 1019.5
20221207071150 5 90 0.0 1.6 0.00 0.03 0.00 99 1019.6
20221207070640 5 135 1.6 3.2 0.00 0.03 0.00 99 1019.3
20221207070130 5 68 1.6 3.2 0.00 0.03 0.00 99 1019.2
20221207065620 5 90 1.6 3.2 0.00 0.03 0.00 99 1019.4
20221207065110 5 90 1.6 3.2 0.00 0.03 0.00 99 1019.5
20221207064559 5 45 1.6 3.2 0.00 0.03 0.00 99 1019.5
20221207064049 5 90 0.0 3.2 0.00 0.03 0.00 99 1019.4
20221207063539 5 90 0.0 3.2 0.00 0.03 0.00 100 1019.4
20221207063029 5 90 0.0 3.2 0.00 0.03 0.00 100 1019.6
20221207062520 5 90 1.6 1.6 0.00 0.03 0.00 100 1019.7
20221207062009 5 45 0.0 1.6 0.00 0.03 0.00 100 1019.7
20221207061729 5 90 0.0 3.2 0.00 0.03 0.00 100 1019.9
20221207061220 5 90 1.6 3.2 0.00 0.03 0.00 100 1019.5
20221207060438 5 90 0.0 4.8 0.00 0.03 0.00 99 1019.5
20221207055928 5 90 1.6 4.8 0.00 0.03 0.03 99 1019.4
20221207055418 5 90 0.0 1.6 0.00 0.03 0.03 99 1019.6
20221207054908 5 90 0.0 1.6 0.00 0.03 0.03 99 1019.6
20221207054357 5 90 0.0 3.2 0.00 0.03 0.03 99 1019.7
20221207053847 5 135 0.0 3.2 0.00 0.03 0.03 99 1019.7
20221207053608 5 90 1.6 4.8 0.00 0.03 0.03 99 1019.5
20221207052827 5 90 1.6 4.8 0.00 0.03 0.03 99 1019.5
20221207052316 5 90 0.0 1.6 0.00 0.03 0.03 99 1019.4
20221207051806 5 90 0.0 3.2 0.00 0.03 0.03 98 1019.5
20221207051258 5 90 1.6 3.2 0.00 0.03 0.03 98 1019.5
20221207050747 5 90 0.0 0.0 0.00 0.03 0.03 98 1019.5
20221207050236 5 90 0.0 1.6 0.00 0.03 0.03 98 1019.4
20221207045726 5 90 0.0 4.8 0.00 0.03 0.03 98 1019.3
20221207045447 5 90 0.0 4.8 0.00 0.03 0.03 98 1019.2
20221207044706 5 90 1.6 3.2 0.00 0.03 0.03 98 1019.1
20221207044155 5 45 1.6 3.2 0.00 0.03 0.03 98 1019.2
20221207043645 5 90 1.6 3.2 0.00 0.03 0.03 98 1019.1
20221207043135 5 90 0.0 1.6 0.00 0.03 0.03 98 1019.1
20221207042625 5 90 1.6 1.6 0.00 0.03 0.03 98 1018.9
20221207042115 5 90 0.0 1.6 0.00 0.03 0.03 98 1018.9
20221207041605 5 135 0.0 1.6 0.00 0.03 0.03 98 1018.9
20221207041055 5 90 0.0 1.6 0.00 0.03 0.03 98 1018.8
20221207040545 5 45 1.6 1.6 0.00 0.03 0.03 98 1018.5
20221207040306 5 45 1.6 3.2 0.00 0.03 0.03 98 1018.6
20221207035525 5 90 1.6 4.8 0.00 0.03 0.03 98 1018.6
20221207035014 5 90 1.6 4.8 0.00 0.03 0.03 98 1018.5
20221207034505 5 45 1.6 3.2 0.00 0.03 0.03 98 1018.5
20221207033955 5 90 0.0 1.6 0.00 0.03 0.03 98 1018.6
20221207033444 5 90 1.6 1.6 0.00 0.03 0.03 98 1018.6
20221207033205 5 90 0.0 1.6 0.00 0.03 0.03 98 1018.5
20221207032424 5 180 1.6 1.6 0.00 0.03 0.03 98 1018.6
20221207032145 5 90 0.0 1.6 0.00 0.03 0.03 98 1018.4
20221207031404 5 90 0.0 1.6 0.00 0.03 0.03 98 1018.5
20221207030854 5 90 1.6 1.6 0.00 0.03 0.03 98 1018.6
20221207030343 5 90 0.0 1.6 0.00 0.03 0.03 97 1018.5
20221207025833 5 90 0.0 1.6 0.00 0.03 0.03 97 1018.3
20221207025044 5 270 1.6 1.6 0.00 0.03 0.03 97 1018.2
20221207024302 5 90 0.0 1.6 0.00 0.03 0.03 97 1018.2
20221207023752 5 113 0.0 1.6 0.00 0.03 0.03 97 1018.3
20221207023242 5 90 0.0 1.6 0.00 0.03 0.03 97 1018.4
20221207022732 5 90 0.0 4.8 0.00 0.03 0.03 97 1018.3
20221207022223 5 90 1.6 4.8 0.00 0.03 0.03 97 1018.2
20221207021712 5 90 1.6 1.6 0.00 0.03 0.03 97 1018.2
20221207021202 5 90 0.0 3.2 0.00 0.03 0.03 97 1018.0
20221207020652 5 90 0.0 3.2 0.00 0.03 0.03 97 1017.8
20221207020141 5 45 1.6 3.2 0.00 0.03 0.03 97 1017.8
20221207015631 5 45 0.0 1.6 0.00 0.03 0.03 97 1018.0
20221207015121 5 90 0.0 1.6 0.00 0.03 0.03 97 1018.0
20221207014841 5 315 0.0 3.2 0.00 0.03 0.03 97 1018.0
20221207014101 5 90 0.0 3.2 0.00 0.03 0.03 97 1017.7
20221207013552 5 0 1.6 3.2 0.00 0.03 0.03 97 1017.6
20221207013041 5 225 1.6 3.2 0.00 0.03 0.03 97 1017.5
20221207012531 5 90 0.0 3.2 0.00 0.03 0.03 97 1017.5
20221207012021 5 270 0.0 3.2 0.00 0.03 0.03 97 1017.7
20221207011511 5 90 0.0 3.2 0.00 0.03 0.03 97 1017.5
20221207011000 5 90 0.0 1.6 0.00 0.03 0.03 97 1017.4
20221207010722 5 90 0.0 1.6 0.00 0.03 0.03 97 1017.4
20221207005940 5 90 1.6 1.6 0.00 0.03 0.03 97 1017.3
20221207005429 5 90 0.0 1.6 0.00 0.03 0.03 97 1017.3
20221207005150 5 135 0.0 1.6 0.00 0.03 0.03 97 1017.3
20221207004410 5 135 0.0 1.6 0.00 0.03 0.03 97 1017.5
20221207003901 5 90 0.0 1.6 0.00 0.03 0.03 97 1017.2
20221207003349 5 90 0.0 0.0 0.00 0.03 0.03 97 1017.3
20221207002839 5 90 0.0 0.0 0.00 0.03 0.03 97 1017.1
20221207002329 5 90 0.0 3.2 0.00 0.03 0.03 97 1017.0
20221207001819 5 90 0.0 3.2 0.00 0.03 0.03 97 1017.2
20221207001309 5 68 0.0 1.6 0.00 0.03 0.03 97 1017.0
20221207000758 5 90 0.0 1.6 0.00 0.03 0.03 97 1017.0
20221207000248 5 90 1.6 1.6 0.00 0.03 0.03 97 1016.8
20221206235739 5 90 0.0 0.0 0.00 0.03 0.03 97 1016.5
20221206235229 5 90 0.0 1.6 0.00 0.03 0.03 97 1016.7
20221206234718 5 90 0.0 1.6 0.00 0.03 0.03 97 1016.6
20221206234209 5 90 1.6 1.6 0.00 0.03 0.03 97 1016.5
20221206233658 5 90 0.0 1.6 0.00 0.03 0.03 97 1016.4
20221206233147 5 90 0.0 3.2 0.00 0.03 0.03 98 1016.3
20221206232638 5 225 0.0 3.2 0.00 0.03 0.03 98 1016.4
20221206232128 5 90 0.0 1.6 0.00 0.03 0.03 98 1016.4
20221206231617 5 45 0.0 0.0 0.00 0.03 0.03 98 1016.4
20221206231107 5 90 0.0 1.6 0.00 0.03 0.03 98 1016.4
20221206230556 5 45 0.0 1.6 0.00 0.03 0.03 98 1016.3